,,Stat6,,Stat2,,Stat8,,Stat9,,Stat10,,Wind1,,Wind1,
time,status,PA1M_AVG,status,PR1M_SUM,status,RH1M_AVG,status,SR1M_AVG,status,TA1M_AVG,status,W1dAve1m,status,W1sAve1m,
2005-04-21, 00:00:00,VALID,919.028,VALID,0,VALID,89.8045,VALID,0.0339617,VALID,20.9576,VALID,124,VALID,1.48935,
2005-04-21, 00:01:00,VALID,919.033,VALID,0,VALID,89.8439,VALID,0.0679233,VALID,20.9619,VALID,125,VALID,1.38105,
2005-04-21, 00:02:00,VALID,919.002,VALID,0,VALID,89.9152,VALID,0.0509425,VALID,20.9382,VALID,111,VALID,1.64825,
2005-04-21, 00:03:00,VALID,918.985,VALID,0,VALID,89.8961,VALID,0.0169808,VALID,20.9256,VALID,114,VALID,1.61937,
2005-04-21, 00:04:00,VALID,918.987,VALID,0,VALID,89.8071,VALID,0.0339617,VALID,20.9285,VALID,107,VALID,1.80996,
2005-04-21, 00:05:01,VALID,918.945,VALID,0,VALID,90.0385,VALID,0.0509425,VALID,20.9253,VALID,109,VALID,1.63027,
2005-04-21, 00:06:00,VALID,918.932,VALID,0,VALID,90.2687,VALID,0.0849042,VALID,20.8863,VALID,90,VALID,1.17605,
2005-04-21, 00:07:00,VALID,918.911,VALID,0,VALID,90.5764,VALID,0.0339617,VALID,20.855,VALID,109,VALID,1.63175,
2005-04-21, 00:08:00,VALID,918.884,VALID,0,VALID,90.8841,VALID,0.0509425,VALID,20.8031,VALID,106,VALID,2.01372,
2005-04-21, 00:09:00,VALID,918.861,VALID,0,VALID,91.1232,VALID,0.0169808,VALID,20.7541,VALID,110,VALID,2.14335,
2005-04-21, 00:10:00,VALID,918.835,VALID,0,VALID,91.3254,VALID,0.0509425,VALID,20.7025,VALID,106,VALID,1.09824,
2005-04-21, 00:11:00,VALID,918.835,VALID,0,VALID,91.2453,VALID,0.0849042,VALID,20.6866,VALID,110,VALID,1.66741,
2005-04-21, 00:12:01,VALID,918.842,VALID,0,VALID,91.2211,VALID,0.0169808,VALID,20.6971,VALID,110,VALID,1.47266,
2005-04-21, 00:13:00,VALID,918.841,VALID,0,VALID,91.2427,VALID,0.0169808,VALID,20.6871,VALID,116,VALID,1.49777,
2005-04-21, 00:14:01,VALID,918.849,VALID,0,VALID,91.3546,VALID,0.0509425,VALID,20.6769,VALID,105,VALID,1.40365,
2005-04-21, 00:15:00,VALID,918.844,VALID,0,VALID,91.5721,VALID,0.0169808,VALID,20.6478,VALID,118,VALID,1.31566,
2005-04-21, 00:16:01,VALID,918.86,VALID,0,VALID,91.7285,VALID,0,VALID,20.6185,VALID,139,VALID,1.49512,
2005-04-21, 00:17:00,VALID,918.854,VALID,0,VALID,91.8048,VALID,0.0679233,VALID,20.5962,VALID,125,VALID,1.11071,
2005-04-21, 00:18:01,VALID,918.85,VALID,0,VALID,91.7908,VALID,0.0679233,VALID,20.5865,VALID,129,VALID,1.29129,
2005-04-21, 00:19:00,VALID,918.827,VALID,0,VALID,91.6547,VALID,0.0169808,VALID,20.5964,VALID,140,VALID,1.77066,
2005-04-21, 00:20:00,VALID,918.811,VALID,0,VALID,91.4932,VALID,-0.0339617,VALID,20.6171,VALID,151,VALID,1.65572,
2005-04-21, 00:21:01,VALID,918.789,VALID,0,VALID,91.3966,VALID,-0.0679233,VALID,20.6496,VALID,135,VALID,1.70084,
2005-04-21, 00:22:00,VALID,918.762,VALID,0,VALID,91.2491,VALID,-0.0679233,VALID,20.6593,VALID,135,VALID,1.81045,
2005-04-21, 00:23:01,VALID,918.735,VALID,0,VALID,91.0571,VALID,-0.0509425,VALID,20.7018,VALID,137,VALID,1.96609,
2005-04-21, 00:24:00,VALID,918.69,VALID,0,VALID,90.7633,VALID,-0.0509425,VALID,20.7341,VALID,132,VALID,2.27468,
2005-04-21, 00:25:00,VALID,918.673,VALID,0,VALID,90.3895,VALID,-0.0849042,VALID,20.7759,VALID,124,VALID,1.67764,
2005-04-21, 00:26:00,VALID,918.668,VALID,0,VALID,90.0232,VALID,-0.0509425,VALID,20.8372,VALID,125,VALID,1.75164,
2005-04-21, 00:27:00,VALID,918.664,VALID,0,VALID,89.61,VALID,-0.0849042,VALID,20.8889,VALID,134,VALID,1.95195,
2005-04-21, 00:28:01,VALID,918.66,VALID,0,VALID,89.1586,VALID,-0.0509425,VALID,20.9662,VALID,127,VALID,1.76199,
2005-04-21, 00:29:01,VALID,918.646,VALID,0,VALID,88.7211,VALID,-0.0849042,VALID,21.0472,VALID,124,VALID,2.05697,
2005-04-21, 00:30:00,VALID,918.66,VALID,0,VALID,88.3727,VALID,-0.0509425,VALID,21.1245,VALID,126,VALID,1.91097,
2005-04-21, 00:31:00,VALID,918.632,VALID,0,VALID,88.1921,VALID,-0.0509425,VALID,21.1796,VALID,130,VALID,1.88988,
2005-04-21, 00:32:01,VALID,918.629,VALID,0,VALID,88.0205,VALID,-0.0509425,VALID,21.1982,VALID,135,VALID,2.0385,
2005-04-21, 00:33:00,VALID,918.606,VALID,0,VALID,87.9315,VALID,-0.0679233,VALID,21.2179,VALID,138,VALID,1.96589,
2005-04-21, 00:34:00,VALID,918.593,VALID,0,VALID,87.9467,VALID,-0.101885,VALID,21.2445,VALID,132,VALID,1.71555,
2005-04-21, 00:35:00,VALID,918.587,VALID,0,VALID,87.9276,VALID,0,VALID,21.2273,VALID,134,VALID,1.75534,
2005-04-21, 00:36:01,VALID,918.581,VALID,0,VALID,87.9302,VALID,0,VALID,21.2305,VALID,137,VALID,2.07173,
2005-04-21, 00:37:00,VALID,918.556,VALID,0,VALID,87.8806,VALID,0,VALID,21.234,VALID,142,VALID,1.76823,
2005-04-21, 00:38:01,VALID,918.531,VALID,0,VALID,87.8704,VALID,0,VALID,21.2402,VALID,140,VALID,2.50725,
2005-04-21, 00:39:00,VALID,918.524,VALID,0,VALID,87.8564,VALID,-0.0169808,VALID,21.2241,VALID,138,VALID,2.51781,
2005-04-21, 00:40:00,VALID,918.493,VALID,0,VALID,87.6606,VALID,0,VALID,21.2399,VALID,135,VALID,2.36607,
2005-04-21, 00:41:00,VALID,918.454,VALID,0,VALID,87.4826,VALID,0,VALID,21.2749,VALID,138,VALID,1.69609,
2005-04-21, 00:42:00,VALID,918.419,VALID,0,VALID,87.4838,VALID,0.0169808,VALID,21.3013,VALID,128,VALID,1.71551,
2005-04-21, 00:43:00,VALID,918.394,VALID,0,VALID,87.6161,VALID,0.0169808,VALID,21.2984,VALID,132,VALID,1.89453,
2005-04-21, 00:44:00,VALID,918.386,VALID,0,VALID,87.8157,VALID,0,VALID,21.2523,VALID,107,VALID,1.83903,
2005-04-21, 00:45:01,VALID,918.364,VALID,0,VALID,88.0573,VALID,-0.0169808,VALID,21.2238,VALID,130,VALID,1.60778,
2005-04-21, 00:46:01,VALID,918.353,VALID,0,VALID,88.0662,VALID,0,VALID,21.1883,VALID,130,VALID,1.63263,
2005-04-21, 00:47:00,VALID,918.348,VALID,0,VALID,88.1464,VALID,-0.0169808,VALID,21.1848,VALID,136,VALID,1.71608,
2005-04-21, 00:48:01,VALID,918.372,VALID,0,VALID,88.2379,VALID,-0.0169808,VALID,21.1694,VALID,136,VALID,1.63967,
2005-04-21, 00:49:00,VALID,918.393,VALID,0,VALID,88.2366,VALID,0,VALID,21.1659,VALID,135,VALID,1.84492,
2005-04-21, 00:50:00,VALID,918.424,VALID,0,VALID,88.1603,VALID,0.0169808,VALID,21.1721,VALID,136,VALID,1.94833,
2005-04-21, 00:51:00,VALID,918.423,VALID,0,VALID,88.0497,VALID,-0.0169808,VALID,21.1818,VALID,141,VALID,1.76358,
2005-04-21, 00:52:00,VALID,918.433,VALID,0,VALID,88.079,VALID,0,VALID,21.2049,VALID,138,VALID,1.4657,
2005-04-21, 00:53:00,VALID,918.434,VALID,0,VALID,88.0065,VALID,0.0339617,VALID,21.1977,VALID,131,VALID,1.93259,
2005-04-21, 00:54:01,VALID,918.421,VALID,0,VALID,88.0408,VALID,0,VALID,21.2109,VALID,129,VALID,2.0496,
2005-04-21, 00:55:01,VALID,918.402,VALID,0,VALID,88.0332,VALID,0,VALID,21.2208,VALID,136,VALID,2.16406,
2005-04-21, 00:56:01,VALID,918.359,VALID,0,VALID,87.8526,VALID,0,VALID,21.2241,VALID,126,VALID,2.94876,
2005-04-21, 00:57:01,VALID,918.332,VALID,0,VALID,87.7878,VALID,0.0169808,VALID,21.2596,VALID,120,VALID,1.95065,
2005-04-21, 00:58:00,VALID,918.299,VALID,0,VALID,87.728,VALID,0,VALID,21.2755,VALID,128,VALID,1.89276,
2005-04-21, 00:59:01,VALID,918.293,VALID,0,VALID,87.7318,VALID,-0.0169808,VALID,21.279,VALID,133,VALID,1.64463,
2005-04-21, 01:00:01,VALID,918.284,VALID,0,VALID,87.6263,VALID,-0.0169808,VALID,21.2787,VALID,128,VALID,1.82522,
2005-04-21, 01:01:00,VALID,918.283,VALID,0,VALID,87.3796,VALID,-0.0339617,VALID,21.308,VALID,132,VALID,2.33455,
2005-04-21, 01:02:01,VALID,918.28,VALID,0,VALID,87.4317,VALID,0,VALID,21.3207,VALID,137,VALID,1.70603,
2005-04-21, 01:03:01,VALID,918.296,VALID,0,VALID,87.4928,VALID,0,VALID,21.3242,VALID,134,VALID,1.51417,
2005-04-21, 01:04:00,VALID,918.318,VALID,0,VALID,87.3847,VALID,0,VALID,21.3172,VALID,140,VALID,2.26349,
2005-04-21, 01:05:01,VALID,918.316,VALID,0,VALID,87.466,VALID,-0.0169808,VALID,21.3242,VALID,127,VALID,1.51834,
2005-04-21, 01:06:01,VALID,918.332,VALID,0,VALID,87.4165,VALID,0,VALID,21.3107,VALID,138,VALID,2.09896,
2005-04-21, 01:07:01,VALID,918.336,VALID,0,VALID,86.9917,VALID,-0.0169808,VALID,21.3438,VALID,131,VALID,2.92351,
2005-04-21, 01:08:01,VALID,918.336,VALID,0,VALID,87.0413,VALID,-0.0339617,VALID,21.395,VALID,128,VALID,1.66914,
2005-04-21, 01:09:01,VALID,918.32,VALID,0,VALID,87.1825,VALID,-0.0509425,VALID,21.392,VALID,131,VALID,1.42324,
2005-04-21, 01:10:01,VALID,918.314,VALID,0,VALID,87.2982,VALID,0,VALID,21.3727,VALID,130,VALID,1.44713,
2005-04-21, 01:11:01,VALID,918.313,VALID,0,VALID,87.5322,VALID,-0.0339617,VALID,21.3433,VALID,135,VALID,1.34339,
2005-04-21, 01:12:01,VALID,918.321,VALID,0,VALID,87.6212,VALID,0,VALID,21.3145,VALID,144,VALID,1.85174,
2005-04-21, 01:13:01,VALID,918.346,VALID,0,VALID,87.5245,VALID,0,VALID,21.2951,VALID,138,VALID,2.24582,
2005-04-21, 01:14:01,VALID,918.335,VALID,0,VALID,87.4076,VALID,0,VALID,21.3142,VALID,128,VALID,1.87016,
2005-04-21, 01:15:01,VALID,918.343,VALID,0,VALID,87.3643,VALID,-0.0169808,VALID,21.3272,VALID,134,VALID,1.75527,
2005-04-21, 01:16:01,VALID,918.304,VALID,0,VALID,87.1774,VALID,-0.0509425,VALID,21.3433,VALID,138,VALID,2.02035,
2005-04-21, 01:17:01,VALID,918.272,VALID,0,VALID,87.1888,VALID,-0.0339617,VALID,21.3721,VALID,119,VALID,1.39426,
2005-04-21, 01:18:01,VALID,918.253,VALID,0,VALID,87.2232,VALID,-0.0339617,VALID,21.3791,VALID,134,VALID,0.863889,
2005-04-21, 01:19:01,VALID,918.239,VALID,0,VALID,87.2333,VALID,-0.0169808,VALID,21.3689,VALID,128,VALID,1.46726,
2005-04-21, 01:20:01,VALID,918.223,VALID,0,VALID,87.3719,VALID,-0.0169808,VALID,21.3662,VALID,113,VALID,1.57489,
2005-04-21, 01:21:01,VALID,918.231,VALID,0,VALID,87.5093,VALID,0,VALID,21.3438,VALID,99,VALID,1.55832,
2005-04-21, 01:22:01,VALID,918.232,VALID,0,VALID,87.6339,VALID,-0.0169808,VALID,21.328,VALID,106,VALID,1.66531,
2005-04-21, 01:23:01,VALID,918.231,VALID,0,VALID,87.873,VALID,0,VALID,21.2876,VALID,106,VALID,1.57776,
2005-04-21, 01:24:01,VALID,918.251,VALID,0,VALID,88.0777,VALID,0,VALID,21.2623,VALID,99,VALID,1.3105,
2005-04-21, 01:25:01,VALID,918.26,VALID,0,VALID,88.2214,VALID,0,VALID,21.2335,VALID,91,VALID,1.64539,
2005-04-21, 01:26:01,VALID,918.278,VALID,0,VALID,88.4096,VALID,0,VALID,21.2044,VALID,98,VALID,1.35756,
2005-04-21, 01:27:01,VALID,918.29,VALID,0,VALID,88.5876,VALID,0.0169808,VALID,21.1691,VALID,108,VALID,1.41063,
2005-04-21, 01:28:01,VALID,918.284,VALID,0,VALID,88.8139,VALID,0,VALID,21.1422,VALID,92,VALID,0.96548,
2005-04-21, 01:29:01,VALID,918.278,VALID,0,VALID,88.8966,VALID,0,VALID,21.1199,VALID,90,VALID,1.37209,
2005-04-21, 01:30:01,VALID,918.256,VALID,0,VALID,89.0098,VALID,0.0169808,VALID,21.1035,VALID,98,VALID,1.38319,
2005-04-21, 01:31:01,VALID,918.242,VALID,0,VALID,88.8546,VALID,0,VALID,21.0908,VALID,108,VALID,1.48899,
2005-04-21, 01:32:01,VALID,918.218,VALID,0,VALID,88.9055,VALID,0,VALID,21.1072,VALID,108,VALID,1.65168,
2005-04-21, 01:33:01,VALID,918.198,VALID,0,VALID,88.8394,VALID,0,VALID,21.1234,VALID,112,VALID,1.44271,
2005-04-21, 01:34:01,VALID,918.189,VALID,0,VALID,88.7071,VALID,0,VALID,21.1328,VALID,114,VALID,1.34784,
2005-04-21, 01:35:01,VALID,918.188,VALID,0,VALID,88.6499,VALID,0,VALID,21.1648,VALID,111,VALID,1.40017,
2005-04-21, 01:36:01,VALID,918.202,VALID,0,VALID,88.4706,VALID,0.0169808,VALID,21.1678,VALID,116,VALID,1.18192,
2005-04-21, 01:37:01,VALID,918.201,VALID,0,VALID,88.3841,VALID,0,VALID,21.2006,VALID,126,VALID,1.18464,
2005-04-21, 01:38:01,VALID,918.208,VALID,0,VALID,88.0751,VALID,0,VALID,21.2292,VALID,132,VALID,1.42039,
2005-04-21, 01:39:01,VALID,918.198,VALID,0,VALID,87.9226,VALID,0.0339617,VALID,21.2744,VALID,128,VALID,1.26135,
2005-04-21, 01:40:01,VALID,918.193,VALID,0,VALID,87.8157,VALID,0.0169808,VALID,21.2938,VALID,136,VALID,1.3661,
2005-04-21, 01:41:01,VALID,918.184,VALID,0,VALID,87.7738,VALID,0.0169808,VALID,21.3328,VALID,129,VALID,1.20969,
2005-04-21, 01:42:01,VALID,918.168,VALID,0,VALID,87.7102,VALID,0,VALID,21.3492,VALID,117,VALID,1.42969,
2005-04-21, 01:43:01,VALID,918.153,VALID,0,VALID,87.8679,VALID,-0.0169808,VALID,21.3624,VALID,109,VALID,1.29215,
2005-04-21, 01:44:01,VALID,918.105,VALID,0,VALID,87.7344,VALID,-0.0169808,VALID,21.329,VALID,111,VALID,1.49258,
2005-04-21, 01:45:01,VALID,918.086,VALID,0,VALID,87.6403,VALID,0,VALID,21.349,VALID,113,VALID,1.42097,
2005-04-21, 01:46:00,VALID,918.072,VALID,0,VALID,87.6428,VALID,0,VALID,21.3592,VALID,113,VALID,1.33452,
2005-04-21, 01:47:00,VALID,918.054,VALID,0,VALID,87.5957,VALID,0,VALID,21.3552,VALID,112,VALID,1.2699,
2005-04-21, 01:48:00,VALID,918.036,VALID,0,VALID,87.5551,VALID,-0.0169808,VALID,21.3654,VALID,108,VALID,1.48952,
2005-04-21, 01:49:00,VALID,918.026,VALID,0,VALID,87.5512,VALID,0,VALID,21.3519,VALID,118,VALID,1.746,
2005-04-21, 01:50:00,VALID,918.012,VALID,0,VALID,87.3338,VALID,0,VALID,21.3552,VALID,115,VALID,1.76719,
2005-04-21, 01:51:00,VALID,917.995,VALID,0,VALID,87.3427,VALID,0,VALID,21.3745,VALID,123,VALID,1.56777,
2005-04-21, 01:52:00,VALID,917.972,VALID,0,VALID,87.5436,VALID,0,VALID,21.391,VALID,131,VALID,1.18917,
2005-04-21, 01:53:00,VALID,917.959,VALID,0,VALID,87.7382,VALID,0,VALID,21.3815,VALID,122,VALID,1.32813,
2005-04-21, 01:54:00,VALID,917.933,VALID,0,VALID,87.8475,VALID,-0.0169808,VALID,21.3492,VALID,126,VALID,1.30357,
2005-04-21, 01:55:00,VALID,917.912,VALID,0,VALID,87.8157,VALID,0,VALID,21.3164,VALID,117,VALID,1.51348,
2005-04-21, 01:56:00,VALID,917.898,VALID,0,VALID,87.9289,VALID,0,VALID,21.3078,VALID,109,VALID,1.39902,
2005-04-21, 01:57:00,VALID,917.879,VALID,0,VALID,88.0764,VALID,0,VALID,21.2879,VALID,106,VALID,1.16264,
2005-04-21, 01:58:00,VALID,917.861,VALID,0,VALID,88.1502,VALID,0.0169808,VALID,21.2687,VALID,112,VALID,1.10747,
2005-04-21, 01:59:00,VALID,917.849,VALID,0,VALID,88.2506,VALID,0.0169808,VALID,21.2518,VALID,130,VALID,0.882813,
2005-04-21, 02:00:00,VALID,917.828,VALID,0,VALID,88.332,VALID,0,VALID,21.2319,VALID,124,VALID,1.15402,
2005-04-21, 02:01:00,VALID,917.825,VALID,0,VALID,88.1553,VALID,-0.0169808,VALID,21.2227,VALID,122,VALID,1.10861,
2005-04-21, 02:02:00,VALID,917.81,VALID,0,VALID,88.4732,VALID,0,VALID,21.2391,VALID,95,VALID,1.0705,
2005-04-21, 02:03:00,VALID,917.803,VALID,0,VALID,88.8063,VALID,0,VALID,21.2063,VALID,92,VALID,1.09617,
2005-04-21, 02:04:00,VALID,917.783,VALID,0,VALID,88.9258,VALID,0.0169808,VALID,21.178,VALID,101,VALID,1.32706,
2005-04-21, 02:05:00,VALID,917.753,VALID,0,VALID,89.2552,VALID,-0.0849042,VALID,21.1331,VALID,92,VALID,1.16346,
2005-04-21, 02:06:00,VALID,917.704,VALID,0,VALID,89.5871,VALID,-0.0849042,VALID,21.0881,VALID,89,VALID,1.35175,
2005-04-21, 02:07:00,VALID,917.681,VALID,0,VALID,89.7448,VALID,-0.0849042,VALID,21.0335,VALID,101,VALID,1.21502,
2005-04-21, 02:08:00,VALID,917.642,VALID,0,VALID,89.7753,VALID,-0.0849042,VALID,21.0012,VALID,95,VALID,1.51879,
2005-04-21, 02:09:00,VALID,917.605,VALID,0,VALID,89.816,VALID,-0.0679233,VALID,20.9813,VALID,95,VALID,1.35121,
2005-04-21, 02:10:00,VALID,917.557,VALID,0,VALID,89.3264,VALID,-0.0849042,VALID,21.0049,VALID,109,VALID,1.64063,
2005-04-21, 02:11:00,VALID,917.535,VALID,0,VALID,89.2501,VALID,-0.101885,VALID,21.0399,VALID,94,VALID,1.53088,
2005-04-21, 02:12:00,VALID,917.523,VALID,0,VALID,89.212,VALID,-0.0849042,VALID,21.0596,VALID,102,VALID,1.36215,
2005-04-21, 02:13:00,VALID,917.504,VALID,0,VALID,89.1929,VALID,-0.0679233,VALID,21.0623,VALID,100,VALID,1.22441,
2005-04-21, 02:14:00,VALID,917.51,VALID,0,VALID,89.109,VALID,-0.0679233,VALID,21.0693,VALID,108,VALID,1.40495,
2005-04-21, 02:15:00,VALID,917.519,VALID,0,VALID,89.1395,VALID,-0.0679233,VALID,21.0658,VALID,99,VALID,1.26429,
2005-04-21, 02:16:00,VALID,917.515,VALID,0,VALID,89.1586,VALID,-0.101885,VALID,21.066,VALID,110,VALID,1.47247,
2005-04-21, 02:17:00,VALID,917.496,VALID,0,VALID,89.0988,VALID,-0.101885,VALID,21.066,VALID,107,VALID,1.40197,
2005-04-21, 02:18:00,VALID,917.491,VALID,0,VALID,89.0009,VALID,-0.0679233,VALID,21.0593,VALID,113,VALID,1.49805,
2005-04-21, 02:19:00,VALID,917.465,VALID,0,VALID,88.8801,VALID,-0.0679233,VALID,21.0693,VALID,125,VALID,1.42569,
2005-04-21, 02:20:00,VALID,917.446,VALID,0,VALID,88.5647,VALID,-0.0849042,VALID,21.0889,VALID,125,VALID,1.22656,
2005-04-21, 02:21:00,VALID,917.421,VALID,0,VALID,88.5113,VALID,-0.101885,VALID,21.1078,VALID,122,VALID,1.10215,
2005-04-21, 02:22:00,VALID,917.415,VALID,0,VALID,88.5329,VALID,-0.0849042,VALID,21.114,VALID,118,VALID,1.08794,
2005-04-21, 02:23:00,VALID,917.418,VALID,0,VALID,88.5711,VALID,-0.101885,VALID,21.111,VALID,132,VALID,0.96946,
2005-04-21, 02:24:00,VALID,917.405,VALID,0,VALID,88.4897,VALID,-0.101885,VALID,21.1212,VALID,123,VALID,1.30941,
2005-04-21, 02:25:00,VALID,917.407,VALID,0,VALID,88.3867,VALID,-0.101885,VALID,21.1277,VALID,125,VALID,1.29557,
2005-04-21, 02:26:00,VALID,917.415,VALID,0,VALID,88.1832,VALID,-0.101885,VALID,21.1468,VALID,113,VALID,1.63359,
2005-04-21, 02:27:00,VALID,917.405,VALID,0,VALID,88.1158,VALID,-0.101885,VALID,21.1562,VALID,120,VALID,1.39571,
2005-04-21, 02:28:00,VALID,917.395,VALID,0,VALID,88.0434,VALID,-0.0509425,VALID,21.1764,VALID,116,VALID,0.987909,
2005-04-21, 02:29:00,VALID,917.374,VALID,0,VALID,88.0192,VALID,-0.101885,VALID,21.1888,VALID,112,VALID,1.17816,
2005-04-21, 02:30:00,VALID,917.358,VALID,0,VALID,87.8971,VALID,-0.0849042,VALID,21.1953,VALID,115,VALID,1.45645,
2005-04-21, 02:31:00,VALID,917.346,VALID,0,VALID,87.8437,VALID,-0.0849042,VALID,21.2146,VALID,110,VALID,1.00164,
2005-04-21, 02:32:00,VALID,917.321,VALID,0,VALID,87.8145,VALID,-0.101885,VALID,21.2044,VALID,117,VALID,1.21591,
2005-04-21, 02:33:00,VALID,917.298,VALID,0,VALID,87.7992,VALID,-0.101885,VALID,21.2313,VALID,129,VALID,1.05538,
2005-04-21, 02:34:00,VALID,917.305,VALID,0,VALID,87.7267,VALID,-0.118866,VALID,21.2243,VALID,127,VALID,1.14764,
2005-04-21, 02:35:00,VALID,917.306,VALID,0,VALID,87.6136,VALID,-0.0339617,VALID,21.2375,VALID,121,VALID,1.10455,
2005-04-21, 02:36:00,VALID,917.313,VALID,0,VALID,87.5525,VALID,-0.0679233,VALID,21.2572,VALID,122,VALID,0.908482,
2005-04-21, 02:37:00,VALID,917.32,VALID,0,VALID,87.5271,VALID,-0.0679233,VALID,21.2534,VALID,134,VALID,1.02273,
2005-04-21, 02:38:00,VALID,917.323,VALID,0,VALID,87.6517,VALID,-0.0679233,VALID,21.2539,VALID,148,VALID,0.789418,
2005-04-21, 02:39:00,VALID,917.318,VALID,0,VALID,87.8704,VALID,-0.0679233,VALID,21.2375,VALID,140,VALID,1.04279,
2005-04-21, 02:40:00,VALID,917.322,VALID,0,VALID,88.1705,VALID,-0.0679233,VALID,21.2084,VALID,138,VALID,0.999822,
2005-04-21, 02:41:00,VALID,917.299,VALID,0,VALID,88.3295,VALID,-0.0849042,VALID,21.1629,VALID,132,VALID,1.46075,
2005-04-21, 02:42:00,VALID,917.298,VALID,0,VALID,88.2341,VALID,-0.101885,VALID,21.1506,VALID,134,VALID,1.69219,
2005-04-21, 02:43:00,VALID,917.294,VALID,0,VALID,88.2455,VALID,-0.0849042,VALID,21.1637,VALID,115,VALID,1.13077,
2005-04-21, 02:44:00,VALID,917.286,VALID,0,VALID,88.2977,VALID,-0.0849042,VALID,21.157,VALID,119,VALID,1.20756,
2005-04-21, 02:45:00,VALID,917.284,VALID,0,VALID,88.243,VALID,-0.0849042,VALID,21.1506,VALID,133,VALID,1.24018,
2005-04-21, 02:46:00,VALID,917.279,VALID,0,VALID,88.1756,VALID,-0.0679233,VALID,21.1535,VALID,125,VALID,1.32177,
2005-04-21, 02:47:00,VALID,917.286,VALID,0,VALID,88.1972,VALID,-0.101885,VALID,21.1603,VALID,134,VALID,1.34184,
2005-04-21, 02:48:00,VALID,917.289,VALID,0,VALID,88.187,VALID,-0.0509425,VALID,21.1527,VALID,130,VALID,1.56552,
2005-04-21, 02:49:00,VALID,917.292,VALID,0,VALID,88.0904,VALID,-0.0169808,VALID,21.1691,VALID,131,VALID,1.62891,
2005-04-21, 02:50:00,VALID,917.301,VALID,0,VALID,88.0243,VALID,-0.0679233,VALID,21.1891,VALID,126,VALID,1.35029,
2005-04-21, 02:51:00,VALID,917.314,VALID,0,VALID,87.9849,VALID,-0.0679233,VALID,21.2087,VALID,124,VALID,1.04906,
2005-04-21, 02:52:00,VALID,917.314,VALID,0,VALID,88.0014,VALID,-0.0339617,VALID,21.2216,VALID,99,VALID,0.9375,
2005-04-21, 02:53:00,VALID,917.325,VALID,0,VALID,88.1349,VALID,-0.0509425,VALID,21.2144,VALID,112,VALID,1.17039,
2005-04-21, 02:54:00,VALID,917.325,VALID,0,VALID,88.3396,VALID,-0.0509425,VALID,21.1891,VALID,119,VALID,0.944222,
2005-04-21, 02:55:00,VALID,917.31,VALID,0,VALID,88.4503,VALID,-0.0509425,VALID,21.156,VALID,120,VALID,0.94436,
2005-04-21, 02:56:00,VALID,917.31,VALID,0,VALID,88.435,VALID,-0.0679233,VALID,21.1336,VALID,130,VALID,1.15898,
2005-04-21, 02:57:00,VALID,917.319,VALID,0,VALID,88.4134,VALID,-0.0849042,VALID,21.1438,VALID,111,VALID,0.904204,
2005-04-21, 02:58:00,VALID,917.32,VALID,0,VALID,88.3562,VALID,-0.0339617,VALID,21.1403,VALID,109,VALID,1.14081,
2005-04-21, 02:59:00,VALID,917.346,VALID,0,VALID,88.496,VALID,-0.0169808,VALID,21.1433,VALID,116,VALID,1.25539,
2005-04-21, 03:00:00,VALID,917.364,VALID,0,VALID,88.641,VALID,-0.0509425,VALID,21.114,VALID,110,VALID,1.21439,
2005-04-21, 03:01:00,VALID,917.363,VALID,0,VALID,88.7987,VALID,-0.0339617,VALID,21.0951,VALID,111,VALID,0.925876,
2005-04-21, 03:02:00,VALID,917.381,VALID,0,VALID,88.9805,VALID,-0.0339617,VALID,21.0663,VALID,104,VALID,0.824033,
2005-04-21, 03:03:00,VALID,917.373,VALID,0,VALID,89.2755,VALID,-0.0509425,VALID,21.0233,VALID,91,VALID,0.935764,
2005-04-21, 03:04:00,VALID,917.376,VALID,0,VALID,89.5934,VALID,-0.0169808,VALID,20.9759,VALID,89,VALID,1.30273,
2005-04-21, 03:05:00,VALID,917.382,VALID,0,VALID,89.9965,VALID,0.0339617,VALID,20.9132,VALID,97,VALID,1.23056,
2005-04-21, 03:06:00,VALID,917.386,VALID,0,VALID,90.5115,VALID,0.0679233,VALID,20.8257,VALID,80,VALID,1.44749,
2005-04-21, 03:07:00,VALID,917.385,VALID,0,VALID,91.0291,VALID,0.0849042,VALID,20.7415,VALID,99,VALID,1.19513,
2005-04-21, 03:08:00,VALID,917.389,VALID,0,VALID,91.4309,VALID,0.101885,VALID,20.6605,VALID,107,VALID,1.07456,
2005-04-21, 03:09:00,VALID,917.395,VALID,0,VALID,91.7882,VALID,0.0679233,VALID,20.6193,VALID,113,VALID,0.952344,
2005-04-21, 03:10:00,VALID,917.401,VALID,0,VALID,92.1405,VALID,0.0509425,VALID,20.5571,VALID,135,VALID,1.09877,
2005-04-21, 03:11:00,VALID,917.4,VALID,0,VALID,92.4647,VALID,0.0849042,VALID,20.5057,VALID,137,VALID,1.14063,
2005-04-21, 03:12:00,VALID,917.404,VALID,0,VALID,92.7368,VALID,0.0169808,VALID,20.4508,VALID,112,VALID,1.02038,
2005-04-21, 03:13:00,VALID,917.393,VALID,0,VALID,93.0535,VALID,0.0509425,VALID,20.4123,VALID,116,VALID,1.26883,
2005-04-21, 03:14:00,VALID,917.371,VALID,0,VALID,93.3637,VALID,0.0509425,VALID,20.3505,VALID,122,VALID,1.11573,
2005-04-21, 03:15:00,VALID,917.339,VALID,0,VALID,93.5176,VALID,0.0849042,VALID,20.3289,VALID,120,VALID,1.12388,
2005-04-21, 03:16:00,VALID,917.316,VALID,0,VALID,93.627,VALID,0.0679233,VALID,20.3028,VALID,117,VALID,0.680778,
2005-04-21, 03:17:00,VALID,917.305,VALID,0,VALID,93.7401,VALID,0.0849042,VALID,20.2899,VALID,133,VALID,1.28163,
2005-04-21, 03:18:00,VALID,917.293,VALID,0,VALID,93.7936,VALID,0.0679233,VALID,20.2635,VALID,128,VALID,1.12881,
2005-04-21, 03:19:00,VALID,917.303,VALID,0,VALID,93.7961,VALID,0.0509425,VALID,20.2573,VALID,135,VALID,1.1875,
2005-04-21, 03:20:00,VALID,917.3,VALID,0,VALID,93.7554,VALID,0.0509425,VALID,20.2536,VALID,127,VALID,1.36776,
2005-04-21, 03:21:00,VALID,917.31,VALID,0,VALID,93.613,VALID,0.0679233,VALID,20.2603,VALID,127,VALID,1.27217,
2005-04-21, 03:22:00,VALID,917.318,VALID,0,VALID,93.4731,VALID,0.0509425,VALID,20.2829,VALID,118,VALID,1.12461,
2005-04-21, 03:23:00,VALID,917.33,VALID,0,VALID,93.2964,VALID,0.101885,VALID,20.3085,VALID,102,VALID,1.45472,
2005-04-21, 03:24:00,VALID,917.337,VALID,0,VALID,93.1641,VALID,0.0169808,VALID,20.3478,VALID,119,VALID,1.23642,
2005-04-21, 03:25:00,VALID,917.352,VALID,0,VALID,93.1514,VALID,0.0679233,VALID,20.3639,VALID,118,VALID,1.30278,
2005-04-21, 03:26:00,VALID,917.34,VALID,0,VALID,93.112,VALID,0.0849042,VALID,20.3771,VALID,101,VALID,1.12464,
2005-04-21, 03:27:00,VALID,917.35,VALID,0,VALID,93.0764,VALID,0.0679233,VALID,20.3602,VALID,100,VALID,1.26363,
2005-04-21, 03:28:00,VALID,917.354,VALID,0,VALID,92.9785,VALID,0.0679233,VALID,20.3803,VALID,106,VALID,1.58012,
2005-04-21, 03:29:00,VALID,917.347,VALID,0,VALID,92.8513,VALID,0.0339617,VALID,20.4002,VALID,118,VALID,0.999321,
2005-04-21, 03:30:00,VALID,917.34,VALID,0,VALID,92.644,VALID,0.0509425,VALID,20.4126,VALID,117,VALID,1.39977,
2005-04-21, 03:31:00,VALID,917.325,VALID,0,VALID,92.4177,VALID,0.0169808,VALID,20.4551,VALID,115,VALID,1.18387,
2005-04-21, 03:32:00,VALID,917.313,VALID,0,VALID,92.1494,VALID,0,VALID,20.4906,VALID,116,VALID,1.35385,
2005-04-21, 03:33:00,VALID,917.32,VALID,0,VALID,91.9128,VALID,0,VALID,20.5423,VALID,107,VALID,1.69407,